Location: *
(46.1833°N, 22.7667°E)
Time: 02:04:26
(UTC+00:00)

USA 267 - Pass Details

Date: 17 September 2019
Orbit: 1102 x 1106 km, 123.0° (Epoch: 08 October)

Event Time Altitude Azimuth Distance (km) Brightness Sun altitude
Rises 23:38:57 0° 61° (ENE) 3,925 6.8 -38.9°
Reaches altitude 10° 23:41:37 10° 54° (NE) 2,966 6.1 -38.8°
Maximum altitude 23:47:30 37° 350° (N) 1,651 4.4 -38.3°
Enters shadow 23:48:11 36° 337° (NNW) 1,676 4.3 -38.2°
